SR6NWB-11 Weather Reports


Display with metric or nautical units.
time (UTC)temp
F
wind
direction
speed
MPH
gust
MPH
rain 1hr
in
rain 24hr
in
rain mn
in
humidity
%
barometer
mb
20260905091653 58 0 0.0 0.0 0.00 0.00 0.00 84 1021.5
20260905090708 58 0 0.0 0.0 0.00 0.00 0.00 86 1021.6
20260905085823 58 0 0.0 0.0 0.00 0.00 0.00 85 1021.5
20260905084833 58 0 0.0 0.0 0.00 0.00 0.00 88 1021.3
20260905083833 57 0 0.0 0.0 0.00 0.00 0.00 89 1021.2
20260905083008 57 0 0.0 0.0 0.00 0.00 0.00 92 1021.3
20260905082048 56 0 0.0 0.0 0.00 0.00 0.00 93 1021.2
20260905081238 56 0 0.0 0.0 0.00 0.00 0.00 93 1021.1
20260905080358 56 0 0.0 0.0 0.00 0.00 0.00 95 1021.1
20260905075553 55 0 0.0 0.0 0.00 0.00 0.00 96 1020.9
20260905074748 55 0 0.0 0.0 0.00 0.00 0.00 96 1020.9
20260905073828 55 0 0.0 0.0 0.00 0.00 0.00 97 1020.8
20260905073003 54 0 0.0 0.0 0.00 0.00 0.00 97 1020.9
20260905072038 54 0 0.0 0.0 0.00 0.00 0.00 97 1020.8
20260905071128 54 0 0.0 0.0 0.00 0.00 0.00 97 1020.8
20260905070309 54 0 0.0 0.0 0.00 0.00 0.00 98 1020.7
20260905065321 54 0 0.0 0.0 0.00 0.00 0.00 98 1020.6
20260905064518 54 0 0.0 0.0 0.00 0.00 0.00 99 1020.6
20260905063528 53 0 0.0 0.0 0.00 0.00 0.00 10 1020.7
20260905062557 53 0 0.0 0.0 0.00 0.00 0.00 10 1020.6
20260905061633 53 0 0.0 0.0 0.00 0.00 0.00 10 1020.5
20260905060643 53 0 0.0 0.0 0.00 0.00 0.00 10 1020.3
20260905055818 53 0 0.0 0.0 0.00 0.00 0.00 10 1020.2
20260905054818 53 0 0.0 0.0 0.00 0.00 0.00 10 1020.0
20260905053928 52 0 0.0 0.0 0.00 0.00 0.00 10 1020.0
20260905053008 52 0 0.0 0.0 0.00 0.00 0.00 10 1019.9
20260905052123 52 0 0.0 0.0 0.00 0.00 0.00 10 1019.8
20260905051153 52 0 0.0 0.0 0.00 0.00 0.00 10 1019.8
20260905050343 53 0 0.0 0.0 0.00 0.00 0.00 10 1019.6
20260905045438 53 0 0.0 0.0 0.00 0.00 0.00 10 1019.5
20260905044548 53 0 0.0 0.0 0.00 0.00 0.00 10 1019.6
20260905043618 53 0 0.0 0.0 0.00 0.00 0.00 10 1019.4
20260905042808 53 0 0.0 0.0 0.00 0.00 0.00 10 1019.3
20260905041853 53 0 0.0 0.0 0.00 0.00 0.00 10 1019.0
20260905041003 53 0 0.0 0.0 0.00 0.00 0.00 10 1019.0
20260905040028 53 0 0.0 0.0 0.00 0.00 0.00 10 1018.9
20260905035148 53 0 0.0 0.0 0.00 0.00 0.00 10 1019.0
20260905034303 53 0 0.0 0.0 0.00 0.00 0.00 10 1018.8
20260905033353 53 0 0.0 0.0 0.00 0.00 0.00 10 1018.8
20260905032428 53 0 0.0 0.0 0.00 0.00 0.00 10 1018.7
20260905031428 53 0 0.0 0.0 0.00 0.00 0.00 10 1018.7
20260905030618 53 0 0.0 0.0 0.00 0.00 0.00 10 1018.4
20260905025618 53 0 0.0 0.0 0.00 0.00 0.00 10 1018.6
20260905024633 53 0 0.0 0.0 0.00 0.00 0.00 10 1018.6
20260905023708 53 0 0.0 0.0 0.00 0.00 0.00 10 1018.3
20260905022748 53 0 0.0 0.0 0.00 0.00 0.00 10 1018.1
20260905021928 53 0 0.0 0.0 0.00 0.00 0.00 10 1018.3
20260905021003 53 0 0.0 0.0 0.00 0.00 0.00 10 1017.8
20260905020203 53 0 0.0 0.0 0.00 0.00 0.00 10 1017.4
20260905015233 53 0 0.0 0.0 0.00 0.00 0.00 10 1017.6
20260905014403 53 0 0.0 0.0 0.00 0.00 0.00 10 1017.3
20260905013428 53 0 0.0 0.0 0.00 0.00 0.00 10 1017.6
20260905012543 53 0 0.0 0.0 0.00 0.00 0.00 10 1017.8
20260905011648 53 0 0.0 0.0 0.00 0.00 0.00 10 1017.6
20260905010653 54 0 0.0 0.0 0.00 0.00 0.00 10 1017.9
20260905005728 54 0 0.0 0.0 0.00 0.00 0.00 10 1017.6
20260905004728 54 0 0.0 0.0 0.00 0.00 0.00 10 1017.8
20260905003848 55 0 0.0 0.0 0.00 0.00 0.00 10 1017.8
20260905003013 55 0 0.0 0.0 0.00 0.00 0.00 10 1018.1
20260905002118 55 0 0.0 0.0 0.00 0.00 0.00 10 1018.0
20260905001258 55 0 0.0 0.0 0.00 0.00 0.00 10 1018.0
20260905000428 55 0 0.0 0.0 0.00 0.00 0.00 10 1017.9
20260904235623 56 0 0.0 0.0 0.00 0.00 0.00 10 1017.8
20260904234749 56 0 0.0 0.0 0.00 0.00 0.00 10 1017.9
20260904233933 57 0 0.0 0.0 0.00 0.00 0.00 10 1017.4
20260904233133 57 0 0.0 0.0 0.00 0.00 0.00 10 1017.0
20260904232143 57 0 0.0 0.0 0.00 0.00 0.00 10 1017.4
20260904231323 57 0 0.0 0.0 0.00 0.00 0.00 10 1017.1
20260904230438 57 0 0.0 0.0 0.00 0.00 0.00 10 1017.7
20260904225603 57 0 0.0 0.0 0.00 0.00 0.00 10 1017.1
20260904224758 57 0 0.0 0.0 0.00 0.00 0.00 10 1016.8
20260904223913 57 0 0.0 0.0 0.00 0.00 0.00 10 1017.0
20260904223043 57 0 0.0 0.0 0.00 0.00 0.00 99 1017.4
20260904222103 57 0 0.0 0.0 0.00 0.00 0.00 98 1017.4
20260904221248 58 0 0.0 0.0 0.00 0.00 0.00 97 1017.2
20260904220408 58 0 0.0 0.0 0.00 0.00 0.00 96 1017.0
20260904215513 58 0 0.0 0.0 0.00 0.00 0.00 96 1016.9
20260904214538 58 0 0.0 0.0 0.00 0.00 0.00 95 1016.9
20260904213653 58 0 0.0 0.0 0.00 0.00 0.00 95 1017.0
20260904212758 58 0 0.0 0.0 0.00 0.00 0.00 94 1016.8
20260904211808 58 0 0.0 0.0 0.00 0.00 0.00 94 1017.1
20260904210913 59 0 0.0 0.0 0.00 0.00 0.00 94 1017.3
20260904205920 59 0 0.0 0.0 0.00 0.00 0.00 94 1016.8
20260904205043 59 0 0.0 0.0 0.00 0.00 0.00 93 1016.9
20260904204238 59 0 0.0 0.0 0.00 0.00 0.00 93 1017.1
20260904203413 59 0 0.0 0.0 0.00 0.00 0.00 93 1017.1
20260904202533 60 0 0.0 0.0 0.00 0.00 0.00 93 1017.0
20260904201640 60 0 0.0 0.0 0.00 0.00 0.00 92 1017.0
20260904200643 60 0 0.0 0.0 0.00 0.00 0.00 92 1017.2
20260904195658 61 0 0.0 0.0 0.00 0.00 0.00 92 1017.1
20260904194708 61 0 0.0 0.0 0.00 0.00 0.00 92 1016.8
20260904193803 61 0 0.0 0.0 0.00 0.00 0.00 92 1017.0
20260904192833 62 0 0.0 0.0 0.00 0.00 0.00 92 1017.2
20260904191833 63 0 0.0 0.0 0.00 0.00 0.00 92 1016.9
20260904190903 64 0 0.0 0.0 0.00 0.00 0.00 92 1016.9
20260904190009 65 0 0.0 0.0 0.00 0.00 0.00 91 1016.7
20260904185208 66 0 0.0 0.0 0.00 0.00 0.00 91 1016.3
20260904184323 66 0 0.0 0.0 0.00 0.00 0.00 90 1016.4
20260904183443 67 0 0.0 0.0 0.00 0.00 0.00 89 1015.8
20260904182608 67 0 0.0 0.0 0.00 0.00 0.00 89 1015.5
20260904181628 66 0 0.0 0.0 0.00 0.00 0.00 89 1015.3
20260904180817 66 0 0.0 0.0 0.00 0.00 0.00 90 1015.0
20260904175928 66 0 0.0 0.0 0.00 0.00 0.00 90 1014.8
20260904175118 66 0 0.0 0.0 0.00 0.00 0.00 90 1014.7
20260904174228 66 0 0.0 0.0 0.00 0.00 0.00 90 1014.6
20260904173301 66 0 0.0 0.0 0.00 0.00 0.00 90 1014.7
20260904172433 66 0 0.0 0.0 0.00 0.00 0.00 90 1015.3
20260904171508 66 0 0.0 0.0 0.00 0.00 0.00 90 1015.4
20260904170548 66 0 0.0 0.0 0.00 0.00 0.00 90 1015.5
20260904165553 66 0 0.0 0.0 0.00 0.00 0.00 91 1015.5
20260904164648 66 0 0.0 0.0 0.00 0.00 0.00 91 1015.5
20260904163658 66 0 0.0 0.0 0.00 0.00 0.00 92 1015.3
20260904162715 66 0 0.0 0.0 0.00 0.00 0.00 91 1015.7
20260904161743 66 0 0.0 0.0 0.00 0.00 0.00 91 1015.8
20260904160813 67 0 0.0 0.0 0.00 0.00 0.00 91 1015.7
20260904160013 67 0 0.0 0.0 0.00 0.00 0.00 91 1015.8
20260904155109 67 0 0.0 0.0 0.00 0.00 0.00 91 1015.7
20260904154223 67 0 0.0 0.0 0.00 0.00 0.00 91 1015.5
20260904153333 66 0 0.0 0.0 0.00 0.00 0.00 92 1015.5
20260904152527 66 0 0.0 0.0 0.00 0.00 0.00 91 1015.4
20260904151548 67 0 0.0 0.0 0.00 0.00 0.00 92 1015.6
20260904150633 67 0 0.0 0.0 0.00 0.00 0.00 92 1015.4
20260904145803 67 0 0.0 0.0 0.00 0.00 0.00 92 1015.5
20260904144928 67 0 0.0 0.0 0.00 0.00 0.00 92 1015.5
20260904144103 67 0 0.0 0.0 0.00 0.00 0.00 91 1015.8
20260904143123 67 0 0.0 0.0 0.00 0.00 0.00 91 1015.9
20260904142243 67 0 0.0 0.0 0.00 0.00 0.00 91 1016.4
20260904141438 67 0 0.0 0.0 0.00 0.00 0.00 91 1016.4
20260904140543 67 0 0.0 0.0 0.00 0.00 0.00 91 1016.5
20260904135648 67 0 0.0 0.0 0.00 0.00 0.00 92 1016.5
20260904134800 67 0 0.0 0.0 0.00 0.00 0.00 92 1016.6
20260904133858 66 0 0.0 0.0 0.00 0.00 0.00 93 1016.5
20260904133008 66 0 0.0 0.0 0.00 0.00 0.00 93 1016.6
20260904132123 66 0 0.0 0.0 0.00 0.00 0.00 93 1016.9
20260904131318 66 0 0.0 0.0 0.00 0.00 0.00 92 1016.7
20260904130433 66 0 0.0 0.0 0.00 0.00 0.00 93 1017.0
20260904125558 66 0 0.0 0.0 0.00 0.00 0.00 93 1016.8
20260904124748 66 0 0.0 0.0 0.00 0.00 0.00 93 1017.1
20260904123823 66 0 0.0 0.0 0.00 0.00 0.00 94 1017.1
20260904122958 66 0 0.0 0.0 0.00 0.00 0.00 94 1017.3
20260904122018 65 0 0.0 0.0 0.00 0.00 0.00 94 1017.1
20260904121058 65 0 0.0 0.0 0.00 0.00 0.00 95 1017.6
20260904120153 65 0 0.0 0.0 0.00 0.00 0.00 95 1017.3
20260904115338 65 0 0.0 0.0 0.00 0.00 0.00 95 1017.5
20260904114438 65 0 0.0 0.0 0.00 0.00 0.00 96 1017.7
20260904113500 64 0 0.0 0.0 0.00 0.00 0.00 97 1017.9
20260904112603 64 0 0.0 0.0 0.00 0.00 0.00 97 1018.0
20260904111638 64 0 0.0 0.0 0.00 0.00 0.00 97 1017.9
20260904110743 64 0 0.0 0.0 0.00 0.00 0.00 96 1018.2
20260904105743 64 0 0.0 0.0 0.00 0.00 0.00 96 1018.1
20260904104908 64 0 0.0 0.0 0.00 0.00 0.00 97 1018.1
20260904103943 63 0 0.0 0.0 0.00 0.00 0.00 98 1018.2
20260904103129 63 0 0.0 0.0 0.00 0.00 0.00 98 1018.3
20260904102213 63 0 0.0 0.0 0.00 0.00 0.00 99 1018.7
20260904101323 62 0 0.0 0.0 0.00 0.00 0.00 99 1018.7
20260904100348 63 0 0.0 0.0 0.00 0.00 0.00 98 1018.8
20260904095508 62 0 0.0 0.0 0.00 0.00 0.00 99 1018.9
20260904094558 62 0 0.0 0.0 0.00 0.00 0.00 99 1018.8
20260904093613 62 0 0.0 0.0 0.00 0.00 0.00 99 1018.8
20260904092803 62 0 0.0 0.0 0.00 0.00 0.00 99 1019.0